| time (UTC) | temp F | wind direction | speed MPH | gust MPH | rain 1hr in | rain 24hr in | rain mn in | humidity % | barometer mb |
| 20260502191514 | 52 | 258 | 4.0 | 13.0 | 0.00 | 0.00 | 0.00 | 82 | 1011.7 |
| 20260502190002 | 53 | 213 | 6.0 | 12.0 | 0.00 | 0.00 | 0.00 | 82 | 1011.7 |
| 20260502184558 | 53 | 124 | 6.0 | 12.0 | 0.00 | 0.00 | 0.00 | 82 | 1011.7 |
| 20260502183058 | 53 | 202 | 7.0 | 11.0 | 0.00 | 0.00 | 0.00 | 83 | 1012.0 |
| 20260502181543 | 53 | 258 | 6.0 | 12.0 | 0.00 | 0.00 | 0.00 | 82 | 1012.0 |
| 20260502163017 | 53 | 124 | 5.0 | 11.0 | 0.00 | 0.00 | 0.00 | 81 | 1012.0 |
| 20260502161559 | 54 | 124 | 8.0 | 13.0 | 0.00 | 0.00 | 0.00 | 80 | 1012.0 |
| 20260502151540 | 54 | 124 | 7.0 | 14.0 | 0.00 | 0.00 | 0.00 | 81 | 1012.5 |
| 20260502130104 | 52 | 262 | 9.0 | 14.0 | 0.00 | 0.00 | 0.00 | 83 | 1013.0 |
| 20260502123036 | 51 | 124 | 8.0 | 14.0 | 0.00 | 0.00 | 0.00 | 83 | 1012.9 |
| 20260502121542 | 51 | 124 | 7.0 | 15.0 | 0.00 | 0.00 | 0.00 | 83 | 1012.8 |
| 20260502114519 | 51 | 124 | 8.0 | 14.0 | 0.00 | 0.00 | 0.00 | 83 | 1012.7 |
| 20260502113029 | 51 | 235 | 6.0 | 15.0 | 0.00 | 0.00 | 0.00 | 83 | 1012.5 |
| 20260502111522 | 50 | 124 | 7.0 | 13.0 | 0.00 | 0.00 | 0.00 | 84 | 1012.8 |
| 20260502110020 | 50 | 124 | 7.0 | 14.0 | 0.00 | 0.00 | 0.00 | 84 | 1012.5 |
| 20260502104526 | 50 | 124 | 7.0 | 12.0 | 0.00 | 0.00 | 0.00 | 83 | 1012.4 |
| 20260502103059 | 50 | 124 | 8.0 | 13.0 | 0.00 | 0.00 | 0.00 | 83 | 1012.3 |
| 20260502101628 | 50 | 124 | 7.0 | 12.0 | 0.00 | 0.00 | 0.00 | 84 | 1012.6 |
| 20260502091534 | 49 | 124 | 6.0 | 14.0 | 0.00 | 0.00 | 0.00 | 84 | 1012.2 |
| 20260502090108 | 50 | 124 | 5.0 | 11.0 | 0.00 | 0.00 | 0.00 | 83 | 1011.9 |
| 20260502071522 | 50 | 273 | 5.0 | 11.0 | 0.00 | 0.00 | 0.00 | 79 | 1012.0 |
| 20260502070137 | 50 | 283 | 6.0 | 11.0 | 0.00 | 0.00 | 0.00 | 79 | 1012.1 |
| 20260502064504 | 50 | 277 | 5.0 | 8.0 | 0.00 | 0.00 | 0.00 | 79 | 1011.9 |
| 20260502063016 | 50 | 264 | 6.0 | 11.0 | 0.00 | 0.00 | 0.00 | 79 | 1012.2 |
| 20260502061519 | 50 | 273 | 5.0 | 12.0 | 0.00 | 0.00 | 0.00 | 79 | 1012.1 |
| 20260502060027 | 50 | 260 | 6.0 | 11.0 | 0.00 | 0.00 | 0.00 | 78 | 1012.1 |
| 20260502054544 | 51 | 263 | 5.0 | 13.0 | 0.00 | 0.00 | 0.00 | 77 | 1012.2 |
| 20260502053002 | 51 | 284 | 6.0 | 13.0 | 0.00 | 0.00 | 0.00 | 75 | 1012.3 |
| 20260502051512 | 51 | 292 | 5.0 | 11.0 | 0.00 | 0.00 | 0.00 | 76 | 1012.3 |
| 20260502050112 | 51 | 281 | 3.0 | 8.0 | 0.00 | 0.00 | 0.00 | 75 | 1012.3 |
| 20260502044503 | 51 | 278 | 3.0 | 6.0 | 0.00 | 0.00 | 0.00 | 75 | 1012.3 |
| 20260502043031 | 51 | 301 | 4.0 | 7.0 | 0.00 | 0.00 | 0.00 | 75 | 1012.3 |
| 20260502041541 | 51 | 277 | 4.0 | 10.0 | 0.00 | 0.00 | 0.00 | 75 | 1012.4 |
| 20260502040159 | 51 | 124 | 4.0 | 10.0 | 0.00 | 0.00 | 0.00 | 74 | 1012.3 |
| 20260502034559 | 51 | 306 | 3.0 | 10.0 | 0.00 | 0.00 | 0.00 | 74 | 1012.4 |
| 20260502033006 | 51 | 324 | 3.0 | 12.0 | 0.00 | 0.00 | 0.00 | 74 | 1012.4 |
| 20260502031511 | 51 | 290 | 4.0 | 10.0 | 0.00 | 0.00 | 0.00 | 74 | 1012.3 |
| 20260502030007 | 51 | 292 | 4.0 | 9.0 | 0.00 | 0.00 | 0.00 | 75 | 1012.1 |
| 20260502024611 | 51 | 280 | 5.0 | 11.0 | 0.00 | 0.00 | 0.00 | 75 | 1011.9 |
| 20260502023006 | 51 | 276 | 6.0 | 15.0 | 0.00 | 0.00 | 0.00 | 74 | 1011.8 |
| 20260502021514 | 51 | 291 | 6.0 | 14.0 | 0.00 | 0.00 | 0.00 | 75 | 1011.9 |
| 20260502020020 | 51 | 275 | 7.0 | 14.0 | 0.00 | 0.00 | 0.00 | 76 | 1012.0 |
| 20260502014511 | 51 | 268 | 7.0 | 15.0 | 0.00 | 0.00 | 0.00 | 76 | 1011.9 |
| 20260502013101 | 52 | 299 | 7.0 | 14.0 | 0.00 | 0.00 | 0.00 | 76 | 1011.8 |
| 20260502011607 | 51 | 272 | 7.0 | 13.0 | 0.00 | 0.00 | 0.00 | 77 | 1011.5 |
| 20260502010050 | 51 | 269 | 6.0 | 16.0 | 0.00 | 0.00 | 0.00 | 77 | 1011.4 |
| 20260502004604 | 51 | 279 | 7.0 | 15.0 | 0.00 | 0.00 | 0.00 | 78 | 1011.2 |
| 20260502003102 | 51 | 248 | 8.0 | 15.0 | 0.00 | 0.00 | 0.00 | 78 | 1011.0 |
| 20260502001533 | 52 | 263 | 6.0 | 16.0 | 0.00 | 0.00 | 0.00 | 76 | 1010.8 |
| 20260502000051 | 52 | 281 | 8.0 | 18.0 | 0.00 | 0.00 | 0.00 | 76 | 1010.6 |
| 20260501234559 | 52 | 258 | 7.0 | 19.0 | 0.00 | 0.00 | 0.00 | 76 | 1010.3 |
| 20260501233059 | 53 | 270 | 7.0 | 17.0 | 0.00 | 0.00 | 0.00 | 77 | 1010.2 |
| 20260501231556 | 53 | 252 | 8.0 | 17.0 | 0.00 | 0.00 | 0.00 | 78 | 1010.0 |
| 20260501230058 | 53 | 269 | 7.0 | 18.0 | 0.00 | 0.00 | 0.00 | 76 | 1009.9 |
| 20260501224608 | 53 | 124 | 10.0 | 21.0 | 0.00 | 0.00 | 0.00 | 76 | 1009.7 |
| 20260501223050 | 53 | 261 | 7.0 | 17.0 | 0.00 | 0.00 | 0.00 | 78 | 1009.5 |
| 20260501221535 | 53 | 124 | 10.0 | 21.0 | 0.00 | 0.00 | 0.00 | 77 | 1009.4 |
| 20260501220139 | 53 | 124 | 11.0 | 22.0 | 0.00 | 0.00 | 0.00 | 79 | 1009.3 |
| 20260501214543 | 53 | 124 | 8.0 | 25.0 | 0.00 | 0.00 | 0.00 | 77 | 1009.2 |
| 20260501213105 | 54 | 252 | 15.0 | 22.0 | 0.00 | 0.00 | 0.00 | 76 | 1009.3 |
| 20260501211511 | 54 | 124 | 15.0 | 23.0 | 0.00 | 0.00 | 0.00 | 74 | 1009.2 |
| 20260501210015 | 54 | 124 | 15.0 | 24.0 | 0.00 | 0.00 | 0.00 | 73 | 1009.1 |
| 20260501204514 | 54 | 262 | 11.0 | 25.0 | 0.00 | 0.00 | 0.00 | 74 | 1009.0 |
| 20260501203048 | 55 | 124 | 10.0 | 26.0 | 0.00 | 0.00 | 0.00 | 72 | 1009.0 |
| 20260501201607 | 55 | 260 | 11.0 | 25.0 | 0.00 | 0.00 | 0.00 | 69 | 1009.0 |
| 20260501200058 | 55 | 261 | 9.0 | 20.0 | 0.00 | 0.00 | 0.00 | 69 | 1008.8 |
| 20260501194506 | 56 | 204 | 12.0 | 22.0 | 0.00 | 0.00 | 0.00 | 69 | 1008.9 |
| 20260501193008 | 55 | 124 | 12.0 | 23.0 | 0.00 | 0.00 | 0.00 | 66 | 1009.0 |